When you browse on this site, cookies collect data to enhance your experience and personalize the content and advertising you see.
Visit our Privacy Policy to learn more. By continuing to use the site, you agree to this use of cookies and data.
  • In Latvia
  • List of Countries
  • For 7 days
  • Water Temperature
  • Weather Map
  • Weather Widgets
  • user-avatar
    Login

    Hourly Weather Surinsk

    Today, 25 August, Sunday

    Time Temperature Precipitation Wind Pressure Humidity
    00:00 +15°C° 0 mm 1 mps 757 mmHg 70%
    01:00 +15°C° 0 mm 1 mps 757 mmHg 72%
    02:00 +15°C° 0 mm 1 mps 757 mmHg 74%
    03:00 +14°C° 0 mm 1 mps 757 mmHg 75%
    04:00 +15°C° 0 mm 1 mps 757 mmHg 75%
    05:00 +15°C° 0 mm 2 mps 757 mmHg 76%
    06:00 +15°C° 0 mm 2 mps 756 mmHg 76%
    07:00 +17°C° 0 mm 3 mps 756 mmHg 71%
    08:00 +19°C° 0 mm 3 mps 756 mmHg 66%
    09:00 +21°C° 0 mm 4 mps 756 mmHg 60%
    10:00 +22°C° 0 mm 4 mps 756 mmHg 59%
    11:00 +22°C° 0 mm 5 mps 756 mmHg 58%
    12:00 +23°C° 0 mm 5 mps 755 mmHg 58%
    13:00 +23°C° 0 mm 5 mps 756 mmHg 56%
    14:00 +23°C° 0 mm 6 mps 756 mmHg 54%
    15:00 +23°C° 0 mm 6 mps 756 mmHg 53%
    16:00 +21°C° 0 mm 6 mps 756 mmHg 58%
    17:00 +20°C° 0 mm 6 mps 756 mmHg 63%
    18:00 +17°C° 0 mm 6 mps 756 mmHg 68%
    19:00 +16°C° 0 mm 5 mps 757 mmHg 72%
    20:00 +14°C° 0 mm 4 mps 758 mmHg 76%
    21:00 +13°C° 0 mm 3 mps 758 mmHg 80%
    22:00 +13°C° 0 mm 4 mps 758 mmHg 82%
    23:00 +13°C° 0 mm 4 mps 758 mmHg 85%

    Tomorrow, 26 August, Monday

    Time Temperature Precipitation Wind Pressure Humidity
    00:00 +13°C° 0 mm 4 mps 759 mmHg 87%
    01:00 +12°C° 0 mm 4 mps 759 mmHg 89%
    02:00 +12°C° 0 mm 4 mps 760 mmHg 91%
    03:00 +11°C° 0 mm 4 mps 760 mmHg 93%
    04:00 +11°C° 0 mm 4 mps 760 mmHg 93%
    05:00 +11°C° 0 mm 4 mps 760 mmHg 92%
    06:00 +11°C° 0 mm 3 mps 760 mmHg 92%
    07:00 +12°C° 0 mm 4 mps 761 mmHg 84%
    08:00 +14°C° 0 mm 4 mps 761 mmHg 77%
    09:00 +15°C° 0 mm 4 mps 762 mmHg 70%
    10:00 +17°C° 0 mm 4 mps 761 mmHg 64%
    11:00 +18°C° 0 mm 4 mps 761 mmHg 58%
    12:00 +19°C° 0 mm 4 mps 761 mmHg 52%
    13:00 +19°C° 0 mm 4 mps 761 mmHg 51%
    14:00 +20°C° 0 mm 4 mps 761 mmHg 50%
    15:00 +20°C° 0 mm 3 mps 761 mmHg 48%
    16:00 +19°C° 0 mm 3 mps 760 mmHg 54%
    17:00 +18°C° 0 mm 3 mps 760 mmHg 59%
    18:00 +17°C° 0 mm 2 mps 760 mmHg 65%
    19:00 +16°C° 0 mm 2 mps 760 mmHg 67%
    20:00 +15°C° 0 mm 2 mps 760 mmHg 69%
    21:00 +14°C° 0 mm 2 mps 760 mmHg 71%
    22:00 +14°C° 0 mm 2 mps 759 mmHg 73%
    23:00 +13°C° 0 mm 2 mps 759 mmHg 75%

    Day after tomorrow, 27 August, Tuesday

    Time Temperature Precipitation Wind Pressure Humidity
    00:00 +13°C° 0 mm 2 mps 759 mmHg 76%
    01:00 +13°C° 0 mm 2 mps 758 mmHg 77%
    02:00 +12°C° 0 mm 3 mps 758 mmHg 78%
    03:00 +12°C° 0 mm 3 mps 757 mmHg 78%
    04:00 +12°C° 0 mm 3 mps 757 mmHg 77%
    05:00 +13°C° 0 mm 4 mps 756 mmHg 76%
    06:00 +13°C° 0 mm 4 mps 755 mmHg 75%
    07:00 +14°C° 0 mm 5 mps 755 mmHg 71%
    08:00 +15°C° 0 mm 5 mps 754 mmHg 67%
    09:00 +17°C° 0 mm 6 mps 754 mmHg 63%
    10:00 +17°C° 0.1 mm 6 mps 753 mmHg 66%
    11:00 +17°C° 0.1 mm 5 mps 752 mmHg 70%
    12:00 +17°C° 0.1 mm 5 mps 752 mmHg 73%
    13:00 +17°C° 0.8 mm 5 mps 751 mmHg 76%
    14:00 +16°C° 0.8 mm 6 mps 751 mmHg 80%
    15:00 +16°C° 0.8 mm 6 mps 750 mmHg 83%
    16:00 +16°C° 0.6 mm 5 mps 750 mmHg 83%
    17:00 +17°C° 0.6 mm 4 mps 749 mmHg 83%
    18:00 +17°C° 0.6 mm 3 mps 748 mmHg 84%
    19:00 +16°C° 0.7 mm 3 mps 748 mmHg 86%
    20:00 +14°C° 0.7 mm 4 mps 748 mmHg 88%
    21:00 +13°C° 0.7 mm 4 mps 748 mmHg 90%
    22:00 +13°C° 0 mm 4 mps 748 mmHg 90%
    23:00 +12°C° 0 mm 4 mps 747 mmHg 91%

    28 August, Wednesday

    Time Temperature Precipitation Wind Pressure Humidity
    00:00 +12°C° 0 mm 5 mps 747 mmHg 91%
    01:00 +10°C° 0.1 mm 5 mps 747 mmHg 91%
    02:00 +10°C° 0.1 mm 6 mps 747 mmHg 90%
    03:00 +9°C° 0.1 mm 6 mps 747 mmHg 90%
    04:00 +9°C° 0.2 mm 7 mps 747 mmHg 89%
    05:00 +9°C° 0.2 mm 7 mps 747 mmHg 89%
    06:00 +9°C° 0.2 mm 7 mps 747 mmHg 88%
    07:00 +9°C° 0.1 mm 8 mps 748 mmHg 86%
    08:00 +9°C° 0.1 mm 8 mps 748 mmHg 85%
    09:00 +7°C° 0.1 mm 8 mps 748 mmHg 83%
    10:00 +9°C° 0 mm 8 mps 749 mmHg 80%
    11:00 +10°C° 0 mm 8 mps 749 mmHg 77%
    12:00 +10°C° 0 mm 8 mps 749 mmHg 73%
    13:00 +10°C° 0 mm 8 mps 749 mmHg 75%
    14:00 +10°C° 0 mm 8 mps 750 mmHg 76%
    15:00 +10°C° 0 mm 8 mps 750 mmHg 78%
    16:00 +10°C° 0 mm 8 mps 750 mmHg 78%
    17:00 +10°C° 0 mm 8 mps 750 mmHg 78%
    18:00 +10°C° 0 mm 8 mps 750 mmHg 78%
    19:00 +10°C° 0.1 mm 8 mps 750 mmHg 80%
    20:00 +8°C° 0.1 mm 9 mps 750 mmHg 82%
    21:00 +8°C° 0.1 mm 9 mps 751 mmHg 85%
    22:00 +8°C° 0.1 mm 9 mps 751 mmHg 86%
    23:00 +8°C° 0.1 mm 9 mps 751 mmHg 87%

    29 August, Thursday

    Time Temperature Precipitation Wind Pressure Humidity
    00:00 +8°C° 0.1 mm 9 mps 751 mmHg 88%
    01:00 +7°C° 0.1 mm 8 mps 751 mmHg 88%
    02:00 +7°C° 0.1 mm 8 mps 751 mmHg 87%
    03:00 +7°C° 0.1 mm 8 mps 752 mmHg 87%
    04:00 +7°C° 0 mm 8 mps 752 mmHg 86%
    05:00 +7°C° 0 mm 8 mps 752 mmHg 84%
    06:00 +7°C° 0 mm 8 mps 753 mmHg 83%
    07:00 +7°C° 0 mm 8 mps 753 mmHg 82%
    08:00 +7°C° 0 mm 9 mps 753 mmHg 80%
    09:00 +7°C° 0 mm 9 mps 754 mmHg 79%
    10:00 +8°C° 0 mm 9 mps 754 mmHg 76%
    11:00 +9°C° 0 mm 8 mps 754 mmHg 72%
    12:00 +10°C° 0 mm 8 mps 754 mmHg 69%
    13:00 +10°C° 0 mm 8 mps 754 mmHg 67%
    14:00 +10°C° 0 mm 8 mps 755 mmHg 66%
    15:00 +11°C° 0 mm 8 mps 755 mmHg 64%
    16:00 +10°C° 0 mm 7 mps 755 mmHg 65%
    17:00 +10°C° 0 mm 7 mps 755 mmHg 66%
    18:00 +9°C° 0 mm 7 mps 756 mmHg 67%
    19:00 +9°C° 0 mm 6 mps 756 mmHg 68%
    20:00 +9°C° 0 mm 6 mps 756 mmHg 69%
    21:00 +8°C° 0 mm 6 mps 756 mmHg 70%
    22:00 +8°C° 0 mm 5 mps 756 mmHg 72%
    23:00 +7°C° 0 mm 5 mps 756 mmHg 74%

    30 August, Friday

    Time Temperature Precipitation Wind Pressure Humidity
    00:00 +7°C° 0 mm 5 mps 756 mmHg 76%
    01:00 +7°C° 0 mm 5 mps 756 mmHg 77%
    02:00 +7°C° 0 mm 6 mps 756 mmHg 78%
    03:00 +7°C° 0 mm 6 mps 756 mmHg 79%
    04:00 +7°C° 0 mm 6 mps 756 mmHg 80%
    05:00 +7°C° 0 mm 6 mps 756 mmHg 82%
    06:00 +7°C° 0 mm 6 mps 756 mmHg 83%
    07:00 +8°C° 0.1 mm 6 mps 756 mmHg 83%
    08:00 +8°C° 0.1 mm 6 mps 756 mmHg 82%
    09:00 +8°C° 0.1 mm 6 mps 757 mmHg 82%
    10:00 +8°C° 0.2 mm 6 mps 757 mmHg 84%
    11:00 +8°C° 0.2 mm 5 mps 757 mmHg 87%
    12:00 +8°C° 0.2 mm 5 mps 758 mmHg 89%
    13:00 +8°C° 0.2 mm 5 mps 758 mmHg 88%
    14:00 +8°C° 0.2 mm 5 mps 758 mmHg 87%
    15:00 +10°C° 0.2 mm 4 mps 758 mmHg 86%
    16:00 +10°C° 0 mm 4 mps 758 mmHg 85%
    17:00 +10°C° 0 mm 4 mps 758 mmHg 84%
    18:00 +10°C° 0 mm 4 mps 758 mmHg 83%
    19:00 +10°C° 0 mm 4 mps 758 mmHg 84%
    20:00 +10°C° 0 mm 3 mps 759 mmHg 84%
    21:00 +9°C° 0 mm 3 mps 759 mmHg 85%
    22:00 +9°C° 0 mm 3 mps 759 mmHg 85%
    23:00 +9°C° 0 mm 3 mps 759 mmHg 85%
    Show more